Location: De Har
(53.3413°N, 6.6858°E)
Time: 20:58:38
(UTC+00:00)

ADEOS II - Pass Details

Date: 22 April 2026
Orbit: 793 x 795 km, 98.8° (Epoch: 21 May)

Event Time Altitude Azimuth Distance (km) Brightness Sun altitude
Rises 02:03:33 0° 20° (NNE) 3,311 6.7 -16.9°
Reaches altitude 10° 02:06:04 10° 29° (NNE) 2,376 5.8 -16.7°
Maximum altitude 02:10:55 37° 96° (E) 1,222 3.3 -16.2°
Drops below altitude 10° 02:15:43 10° 164° (SSE) 2,358 4.2 -15.8°
Enters shadow 02:16:30 - 167° (SSE) 2,639 4.4 -15.7°
